When you browse on this site, cookies collect data to enhance your experience and personalize the content and advertising you see.
Visit our Privacy Policy to learn more. By continuing to use the site, you agree to this use of cookies and data.
  • In Hungary
  • List of Countries
  • For 7 days
  • Water Temperature
  • Satellite Maps
  • Weather Map
  • News
  • Weather Widgets
  • user-avatar
    Login

    Hourly Weather Tigan-Bulyak

    Today, 23 May, Thursday

    Time Temperature Precipitation Wind Pressure Humidity
    00:00 +9°C° 0 mm 3 mps 748 mmHg 95%
    01:00 +9°C° 0.1 mm 3 mps 748 mmHg 96%
    02:00 +9°C° 0.1 mm 3 mps 748 mmHg 96%
    03:00 +9°C° 0 mm 2 mps 747 mmHg 97%
    04:00 +10°C° 0.3 mm 3 mps 747 mmHg 95%
    05:00 +11°C° 0.3 mm 3 mps 746 mmHg 93%
    06:00 +12°C° 0.3 mm 3 mps 746 mmHg 91%
    07:00 +13°C° 0.4 mm 4 mps 746 mmHg 90%
    08:00 +14°C° 0.4 mm 4 mps 745 mmHg 89%
    09:00 +14°C° 0 mm 5 mps 745 mmHg 89%
    10:00 +15°C° 0.9 mm 5 mps 745 mmHg 84%
    11:00 +17°C° 0.9 mm 6 mps 744 mmHg 78%
    12:00 +19°C° 0.9 mm 6 mps 744 mmHg 73%
    13:00 +19°C° 0.1 mm 6 mps 744 mmHg 73%
    14:00 +19°C° 0.1 mm 6 mps 743 mmHg 73%
    15:00 +19°C° 0.1 mm 6 mps 743 mmHg 73%
    16:00 +17°C° 0.9 mm 6 mps 742 mmHg 77%
    17:00 +16°C° 0.9 mm 5 mps 742 mmHg 81%
    18:00 +15°C° 0.9 mm 5 mps 742 mmHg 85%
    19:00 +14°C° 0.9 mm 5 mps 741 mmHg 87%
    20:00 +14°C° 0.9 mm 5 mps 741 mmHg 89%
    21:00 +13°C° 0.9 mm 5 mps 741 mmHg 91%
    22:00 +13°C° 0.5 mm 5 mps 741 mmHg 92%
    23:00 +13°C° 0.5 mm 4 mps 741 mmHg 94%

    Tomorrow, 24 May, Friday

    Time Temperature Precipitation Wind Pressure Humidity
    00:00 +12°C° 0.5 mm 4 mps 741 mmHg 95%
    01:00 +11°C° 0 mm 4 mps 742 mmHg 94%
    02:00 +9°C° 0 mm 5 mps 742 mmHg 94%
    03:00 +8°C° 0 mm 6 mps 742 mmHg 93%
    04:00 +8°C° 0 mm 6 mps 743 mmHg 91%
    05:00 +8°C° 0 mm 6 mps 744 mmHg 89%
    06:00 +7°C° 0 mm 6 mps 744 mmHg 87%
    07:00 +8°C° 0 mm 6 mps 745 mmHg 79%
    08:00 +9°C° 0 mm 6 mps 746 mmHg 71%
    09:00 +9°C° 0 mm 6 mps 747 mmHg 63%
    10:00 +10°C° 0 mm 6 mps 747 mmHg 59%
    11:00 +10°C° 0 mm 6 mps 748 mmHg 55%
    12:00 +10°C° 0 mm 6 mps 748 mmHg 52%
    13:00 +10°C° 0 mm 6 mps 749 mmHg 51%
    14:00 +10°C° 0 mm 6 mps 749 mmHg 51%
    15:00 +12°C° 0 mm 5 mps 749 mmHg 51%
    16:00 +10°C° 0 mm 5 mps 750 mmHg 54%
    17:00 +11°C° 0 mm 4 mps 750 mmHg 58%
    18:00 +10°C° 0 mm 4 mps 750 mmHg 61%
    19:00 +9°C° 0 mm 3 mps 751 mmHg 63%
    20:00 +7°C° 0 mm 3 mps 752 mmHg 64%
    21:00 +6°C° 0 mm 2 mps 752 mmHg 66%
    22:00 +5°C° 0 mm 2 mps 753 mmHg 66%
    23:00 +5°C° 0 mm 2 mps 753 mmHg 66%

    Day after tomorrow, 25 May, Saturday

    Time Temperature Precipitation Wind Pressure Humidity
    00:00 +5°C° 0 mm 1 mps 754 mmHg 66%
    01:00 +5°C° 0 mm 1 mps 754 mmHg 67%
    02:00 +5°C° 0 mm 1 mps 755 mmHg 67%
    03:00 +4°C° 0 mm 1 mps 755 mmHg 67%
    04:00 +5°C° 0 mm 1 mps 755 mmHg 65%
    05:00 +6°C° 0 mm 1 mps 756 mmHg 64%
    06:00 +8°C° 0 mm 1 mps 756 mmHg 62%
    07:00 +9°C° 0 mm 1 mps 756 mmHg 58%
    08:00 +10°C° 0 mm 1 mps 756 mmHg 53%
    09:00 +11°C° 0 mm 1 mps 757 mmHg 49%
    10:00 +12°C° 0 mm 2 mps 756 mmHg 48%
    11:00 +13°C° 0 mm 2 mps 756 mmHg 47%
    12:00 +13°C° 0 mm 2 mps 756 mmHg 46%
    13:00 +14°C° 0 mm 2 mps 756 mmHg 46%
    14:00 +14°C° 0 mm 2 mps 755 mmHg 47%
    15:00 +15°C° 0 mm 2 mps 755 mmHg 47%
    16:00 +14°C° 0 mm 2 mps 755 mmHg 52%
    17:00 +14°C° 0 mm 2 mps 755 mmHg 58%
    18:00 +14°C° 0 mm 2 mps 754 mmHg 64%
    19:00 +11°C° 0 mm 3 mps 754 mmHg 65%
    20:00 +10°C° 0 mm 3 mps 754 mmHg 67%
    21:00 +8°C° 0 mm 3 mps 754 mmHg 69%
    22:00 +8°C° 0 mm 3 mps 754 mmHg 69%
    23:00 +7°C° 0 mm 3 mps 754 mmHg 70%

    26 May, Sunday

    Time Temperature Precipitation Wind Pressure Humidity
    00:00 +7°C° 0 mm 3 mps 754 mmHg 70%
    01:00 +6°C° 0 mm 4 mps 754 mmHg 70%
    02:00 +6°C° 0 mm 4 mps 754 mmHg 70%
    03:00 +6°C° 0 mm 4 mps 754 mmHg 70%
    04:00 +7°C° 0 mm 5 mps 754 mmHg 70%
    05:00 +8°C° 0 mm 5 mps 753 mmHg 70%
    06:00 +9°C° 0 mm 6 mps 753 mmHg 70%
    07:00 +10°C° 0 mm 6 mps 753 mmHg 67%
    08:00 +11°C° 0 mm 6 mps 753 mmHg 63%
    09:00 +14°C° 0 mm 6 mps 752 mmHg 60%
    10:00 +15°C° 0 mm 6 mps 752 mmHg 59%
    11:00 +16°C° 0 mm 6 mps 751 mmHg 57%
    12:00 +17°C° 0 mm 7 mps 751 mmHg 55%
    13:00 +18°C° 0 mm 7 mps 750 mmHg 55%
    14:00 +20°C° 0 mm 7 mps 750 mmHg 56%
    15:00 +20°C° 0 mm 7 mps 749 mmHg 56%
    16:00 +20°C° 0 mm 6 mps 749 mmHg 60%
    17:00 +20°C° 0 mm 5 mps 749 mmHg 64%
    18:00 +19°C° 0 mm 5 mps 748 mmHg 68%
    19:00 +17°C° 0 mm 5 mps 748 mmHg 69%
    20:00 +16°C° 0 mm 5 mps 748 mmHg 71%
    21:00 +15°C° 0 mm 5 mps 748 mmHg 72%
    22:00 +15°C° 0.1 mm 4 mps 747 mmHg 77%
    23:00 +14°C° 0.1 mm 4 mps 747 mmHg 82%

    27 May, Monday

    Time Temperature Precipitation Wind Pressure Humidity
    00:00 +14°C° 0.1 mm 3 mps 747 mmHg 87%
    01:00 +14°C° 1.5 mm 3 mps 746 mmHg 90%
    02:00 +14°C° 1.5 mm 3 mps 746 mmHg 93%
    03:00 +13°C° 1.5 mm 3 mps 746 mmHg 96%
    04:00 +14°C° 0.2 mm 3 mps 745 mmHg 95%
    05:00 +15°C° 0.2 mm 4 mps 745 mmHg 93%
    06:00 +15°C° 0.2 mm 4 mps 745 mmHg 92%
    07:00 +15°C° 1.4 mm 4 mps 745 mmHg 93%
    08:00 +15°C° 1.4 mm 4 mps 745 mmHg 94%
    09:00 +14°C° 1.4 mm 4 mps 745 mmHg 96%
    10:00 +15°C° 0.3 mm 4 mps 744 mmHg 93%
    11:00 +17°C° 0.3 mm 4 mps 744 mmHg 91%
    12:00 +18°C° 0.3 mm 4 mps 744 mmHg 89%
    13:00 +19°C° 0 mm 5 mps 744 mmHg 85%
    14:00 +20°C° 0 mm 5 mps 744 mmHg 81%
    15:00 +21°C° 0 mm 5 mps 744 mmHg 77%
    16:00 +21°C° 0.4 mm 5 mps 744 mmHg 79%
    17:00 +20°C° 0.4 mm 5 mps 745 mmHg 81%
    18:00 +20°C° 0.4 mm 5 mps 745 mmHg 83%
    19:00 +17°C° 0 mm 5 mps 746 mmHg 84%
    20:00 +17°C° 0 mm 4 mps 747 mmHg 85%
    21:00 +14°C° 0 mm 4 mps 747 mmHg 86%
    22:00 +14°C° 0 mm 4 mps 748 mmHg 88%
    23:00 +13°C° 0 mm 4 mps 748 mmHg 89%

    28 May, Tuesday

    Time Temperature Precipitation Wind Pressure Humidity
    00:00 +12°C° 0 mm 4 mps 749 mmHg 91%
    01:00 +11°C° 0 mm 3 mps 749 mmHg 90%
    02:00 +11°C° 0 mm 3 mps 750 mmHg 89%
    03:00 +10°C° 0 mm 3 mps 751 mmHg 88%
    04:00 +11°C° 0 mm 3 mps 751 mmHg 85%
    05:00 +11°C° 0 mm 4 mps 752 mmHg 83%
    06:00 +12°C° 0 mm 4 mps 752 mmHg 80%
    07:00 +13°C° 0 mm 5 mps 752 mmHg 75%
    08:00 +14°C° 0 mm 5 mps 753 mmHg 69%
    09:00 +15°C° 0 mm 5 mps 753 mmHg 64%
    10:00 +16°C° 0 mm 6 mps 753 mmHg 62%
    11:00 +16°C° 0 mm 6 mps 753 mmHg 61%
    12:00 +17°C° 0 mm 6 mps 753 mmHg 59%
    13:00 +17°C° 0 mm 6 mps 753 mmHg 60%
    14:00 +19°C° 0 mm 6 mps 753 mmHg 60%
    15:00 +19°C° 0 mm 6 mps 753 mmHg 61%
    16:00 +19°C° 0 mm 5 mps 753 mmHg 64%
    17:00 +18°C° 0 mm 4 mps 754 mmHg 68%
    18:00 +18°C° 0 mm 3 mps 754 mmHg 72%
    19:00 +16°C° 0 mm 3 mps 754 mmHg 75%
    20:00 +14°C° 0 mm 3 mps 754 mmHg 79%
    21:00 +13°C° 0 mm 3 mps 754 mmHg 82%
    22:00 +12°C° 0 mm 3 mps 755 mmHg 84%
    23:00 +12°C° 0 mm 3 mps 755 mmHg 86%
    Show more